Погода в Брехове

Россия / Пермский край     56°59′31″N   57°25′59″E
темп.,
°C
ветер,
м/с
пор.,
м/с
влажн.,
%
обл.,
%
осадки,
мм/ч
давл.,
гПа
погр.,
м
1 августа, вс
вс123:00+17ююз359397 1.1 100585
02:00+17юз5129515 0.4 1005295
05:00+16зюз5109835 0.4 1006274
08:00+19з6109430 0.4 1007437
11:00+23з67631 1.0 10071191
14:00+25з6104812 0.3 10082109
17:00+22зсз510690 0.6 1009809
20:00+20зсз48664 0.1 1010225
2 августа, пн
пн223:00+19з366497 0.1 1010123
02:00+15з378079 0.0 101198
05:00+14з22875 0.0 101219
08:00+18з367463 0.0 1013248
11:00+22з46589 0.0 1013802
14:00+25зсз585036 0.0 10131897
17:00+25зсз585496 0.0 10131445
20:00+22зюз337493 0.1 101354
3 августа, вт
вт323:00+19зюз228062 0.1 101331
02:00+18зюз2282100 0.3 101319
05:00+17з229274 1.3 101418
08:00+19юз128497 1.0 1014113
11:00+25юз3460100 1.0 1013600
14:00+28з45479 0.0 10131139
17:00+29зюз3445100 0.0 10121479
20:00+26ююв2261100 0.0 101112
4 августа, ср
ср423:00+21ююв346813 0.0 101145
02:00+20ю356117 0.0 101164
05:00+20юв1158100 0.0 101111
08:00+22юв356714 0.1 1011144
11:00+28ю45445 0.1 1009581
14:00+31юз453888 0.0 1009970
17:00+32юз23385 0.0 10081131
20:00+19ююз61775100 1.2 1010365
5 августа, чт
чт523:00+18зсз4882100 1.5 1009149
02:00+17зюз229336 0.0 101047
05:00+16юз22938 0.2 101020
08:00+19зюз238817 0.3 1010226
11:00+23сз4471100 0.6 1010859
14:00+25сз446059 0.3 10101266
17:00+23ссз456741 0.9 1010710
20:00+20ссз58775 0.0 1010449